This demonstration page uses our WeatherBlox Daily Observations layout. Learn more.

Left ArrowRight Arrow

Hourly Observations for February 6, 2016

Temp ( °F °C ) Dew Point ( °F °C ) Humidity (%) Winds ( mph kmh ) Pressure ( in mb ) Visibility ( mi km ) Precip ( " mm )
12:15 am 00:15 Clear 25 -4 21 -6 86 86 W 3 6 30.39 1029 7 11 N/A
12:35 am 00:35 Clear 25 -4 21 -6 86 86 N N/A 30.39 1029 10 16 N/A
12:54 am 00:54 Clear 23 -5 21 -6 93 93 N N/A 30.39 1029 7 11 N/A
1:15 am 01:15 Clear 23 -5 21 -6 93 93 N N/A 30.39 1029 5 8 N/A
1:35 am 01:35 Clear 23 -5 21 -6 93 93 N N/A 30.39 1029 7 11 N/A
1:54 am 01:54 Clear 23 -5 21 -6 93 93 N N/A 30.39 1029 7 11 N/A
2:15 am 02:15 Clear 23 -5 21 -6 93 93 SSW 5 7 30.39 1029 7 11 N/A
2:34 am 02:34 Clear 23 -5 21 -6 93 93 N N/A 30.39 1029 7 11 N/A
2:54 am 02:54 Clear 21 -6 19 -7 93 93 N N/A 30.39 1029 5 8 N/A
3:15 am 03:15 Clear 21 -6 19 -7 93 93 N N/A 30.39 1029 5 8 N/A
3:34 am 03:34 Clear 23 -5 21 -6 93 93 N N/A 30.39 1029 5 8 N/A
3:54 am 03:54 Clear 23 -5 21 -6 93 93 N N/A 30.39 1029 4 6 N/A
4:15 am 04:15 Clear 21 -6 21 -6 100 100 N N/A 30.39 1029 4 6 N/A
4:34 am 04:34 Clear 21 -6 21 -6 100 100 N N/A 30.39 1029 3 5 N/A
4:54 am 04:54 Mostly Cloudy 21 -6 21 -6 100 100 N N/A 30.39 1029 3 5 N/A
5:15 am 05:15 Partly Cloudy 21 -6 21 -6 100 100 N N/A 30.39 1029 3 5 N/A
5:34 am 05:34 Clear 21 -6 21 -6 100 100 N N/A 30.39 1029 3 5 N/A
5:54 am 05:54 Clear 21 -6 21 -6 100 100 S 3 6 30.39 1029 3 5 N/A
6:15 am 06:15 Clear 21 -6 21 -6 100 100 S 3 6 30.39 1029 4 6 N/A
6:34 am 06:34 Clear 21 -6 19 -7 93 93 N N/A 30.39 1029 4 6 N/A
6:55 am 06:55 Clear 21 -6 19 -7 93 93 N N/A 30.39 1029 4 6 N/A
7:15 am 07:15 Clear 21 -6 19 -7 93 93 S 3 6 30.39 1029 4 6 N/A
7:34 am 07:34 Clear 21 -6 19 -7 93 93 N N/A 30.39 1029 4 6 N/A
7:55 am 07:55 Sunny 21 -6 19 -7 93 93 N N/A 30.39 1029 4 6 N/A
8:15 am 08:15 Sunny 21 -6 19 -7 93 93 N N/A 30.39 1029 3 4 N/A
8:34 am 08:34 Sunny 23 -5 21 -6 93 93 S 3 6 30.39 1029 3 4 N/A
8:55 am 08:55 Sunny 25 -4 23 -5 93 93 S 3 6 30.39 1029 3 5 N/A
9:15 am 09:15 Sunny 25 -4 23 -5 93 93 SSW 5 7 30.39 1029 4 6 N/A
9:34 am 09:34 Sunny 27 -3 25 -4 93 93 SW 3 6 30.39 1029 5 8 N/A
9:55 am 09:55 Sunny 28 -2 25 -4 86 86 SW 5 7 30.36 1028 7 11 N/A
10:15 am 10:15 Partly Cloudy 30 -1 25 -4 80 80 SW 6 9 30.36 1028 7 11 N/A
10:34 am 10:34 Mostly Cloudy 30 -1 25 -4 80 80 SSW 7 11 30.36 1028 10 16 N/A
10:55 am 10:55 Cloudy 30 -1 25 -4 80 80 SSW 6 9 30.36 1028 10 16 N/A
11:15 am 11:15 Cloudy 32 undefined 25 -4 75 75 SSW 6 9 30.36 1028 10 16 N/A
11:34 am 11:34 Cloudy 32 undefined 25 -4 75 75 SW 7 11 30.36 1028 10 16 N/A
11:55 am 11:55 Partly Cloudy 34 1 25 -4 70 70 SSW 7 11 30.36 1028 10 16 N/A
12:15 pm 12:15 Sunny 36 2 25 -4 65 65 SSW 5 7 30.36 1028 10 16 N/A
12:34 pm 12:34 Sunny 36 2 23 -5 60 60 SW 7 11 30.33 1027 10 16 N/A
12:55 pm 12:55 Sunny 37 3 21 -6 52 52 S 5 7 30.33 1027 10 16 N/A
1:14 pm 13:14 Sunny 37 3 21 -6 52 52 SW 9 15 30.30 1026 10 16 N/A
1:34 pm 13:34 Sunny 39 4 21 -6 48 48 S 3 6 30.30 1026 10 16 N/A
1:55 pm 13:55 Sunny 41 5 21 -6 45 45 WSW 9 15 30.30 1026 10 16 N/A
2:14 pm 14:14 Sunny 41 5 23 -5 49 49 SSW 9 15 30.24 1024 10 16 N/A
2:34 pm 14:34 Sunny 41 5 21 -6 45 45 WSW 7 11 30.24 1024 10 16 N/A
2:55 pm 14:55 Sunny 43 6 25 -4 49 49 WSW 9 15 30.24 1024 10 16 N/A
3:14 pm 15:14 Sunny 43 6 25 -4 49 49 SW 6 9 30.24 1024 10 16 N/A
3:34 pm 15:34 Sunny 43 6 25 -4 49 49 SW 8 13 30.24 1024 10 16 N/A
3:55 pm 15:55 Sunny 43 6 25 -4 49 49 SSW 7 11 30.24 1024 10 16 N/A
4:14 pm 16:14 Sunny 43 6 25 -4 49 49 WSW 10 17 30.24 1024 10 16 N/A
4:34 pm 16:34 Sunny 43 6 27 -3 53 53 SW 9 15 30.24 1024 10 16 N/A
4:55 pm 16:55 Sunny 43 6 27 -3 53 53 WSW 8 13 30.24 1024 10 16 N/A
5:14 pm 17:14 Sunny 43 6 27 -3 53 53 WSW 8 13 30.24 1024 10 16 N/A
5:34 pm 17:34 Sunny 41 5 27 -3 57 57 WSW 7 11 30.24 1024 10 16 N/A
5:55 pm 17:55 Sunny 39 4 27 -3 61 61 S 3 6 30.27 1025 10 16 N/A
6:14 pm 18:14 Clear 39 4 25 -4 56 56 S 5 7 30.27 1025 10 16 N/A
6:34 pm 18:34 Clear 37 3 25 -4 60 60 S 3 6 30.27 1025 10 16 N/A
6:55 pm 18:55 Clear 36 2 27 -3 70 70 S 5 7 30.24 1024 10 16 N/A
7:14 pm 19:14 Clear 37 3 25 -4 60 60 S 5 7 30.24 1024 10 16 N/A
7:34 pm 19:34 Clear 36 2 27 -3 70 70 S 5 7 30.24 1024 10 16 N/A
7:55 pm 19:55 Clear 36 2 25 -4 65 65 S 5 7 30.24 1024 10 16 N/A
8:14 pm 20:14 Clear 36 2 25 -4 65 65 S 5 7 30.24 1024 10 16 N/A
8:34 pm 20:34 Clear 36 2 25 -4 65 65 S 6 9 30.24 1024 10 16 N/A
8:54 pm 20:54 Clear 34 1 25 -4 70 70 S 6 9 30.24 1024 10 16 N/A
9:14 pm 21:14 Clear 34 1 27 -3 75 75 S 6 9 30.24 1024 10 16 N/A
9:35 pm 21:35 Clear 34 1 25 -4 70 70 S 6 9 30.24 1024 10 16 N/A
9:54 pm 21:54 Clear 34 1 27 -3 75 75 S 6 9 30.24 1024 10 16 N/A
10:14 pm 22:14 Clear 34 1 25 -4 70 70 S 6 9 30.24 1024 10 16 N/A
10:34 pm 22:34 Clear 34 1 25 -4 70 70 S 7 11 30.24 1024 10 16 N/A
10:54 pm 22:54 Clear 34 1 25 -4 70 70 S 7 11 30.24 1024 10 16 N/A
11:15 pm 23:15 Clear 34 1 25 -4 70 70 S 7 11 30.24 1024 10 16 N/A
11:34 pm 23:34 Clear 34 1 25 -4 70 70 S 7 11 30.24 1024 10 16 N/A
11:54 pm 23:54 Clear 34 1 25 -4 70 70 S 8 13 30.24 1024 10 16 N/A

Powered by AerisWeather